Location: Wagman Observatory
(40.6260°N, 79.8130°W)
Time: 15:35:37
(UTC-05:00)

Daily predictions for brighter satellites

Satellite Brightness Start Highest point End
(mag) Time Altitude Azimuth Time Altitude Azimuth Time Altitude Azimuth
GPS 2-04 Rocket1 3.9 18:31:21 10° SW 18:35:12 35° SSE 18:39:08 10° ESE
Cosmos 2322 Rocket 3.9 18:30:28 10° NW 18:35:37 38° WSW 18:40:47 10° S
Cosmos 1570 Rocket 4.4 18:31:03 10° N 18:36:00 41° ENE 18:40:56 10° SE
Meteor 1-28 Rocket 3.2 18:32:11 10° NNE 18:36:02 82° ESE 18:39:50 10° S
Cosmos 2181 Rocket 4.1 18:30:13 10° N 18:36:24 58° E 18:42:39 10° SSE
Cosmos 1633 2.5 18:34:51 10° S 18:38:30 67° E 18:42:10 10° NNE
USA 229 DEB 4.3 18:32:15 10° NNW 18:38:57 41° NE 18:45:44 10° ESE
USA 229 4.3 18:32:21 10° NNW 18:39:03 41° NE 18:45:49 10° ESE
Genesis I 3.3 18:35:56 10° NNW 18:39:48 54° NE 18:43:38 10° SE
Cosmos 1238 Rocket 2.2 18:37:41 10° N 18:40:35 50° E 18:43:34 10° SSE
Okean 1 Rocket 3.4 18:37:09 10° SSE 18:41:25 46° E 18:45:43 10° NNE
Cosmos 1709 Rocket 4.0 18:37:20 10° S 18:43:33 83° E 18:49:43 10° N
NOSS 8 (H) 4.4 18:41:43 10° SSW 18:45:04 68° ESE 18:48:36 10° NE
METEOR-M 4.1 18:40:16 10° SSE 18:45:33 67° ENE 18:50:52 10° N
ASTRO F (AKARI) 4.3 18:43:05 10° NNE 18:46:36 83° ESE 18:49:52 10° SSW
Cosmos 1025 Rocket 3.9 18:44:23 10° NNE 18:48:16 29° ENE 18:52:07 10° SE
OTV 4 2.5 18:47:37 10° SSW 18:49:30 16° SSE 18:51:22 10° ESE
Spot 2 Rocket 4.3 18:46:24 10° SE 18:50:45 30° ENE 18:55:08 10° N
Cosmos 2184 Rocket 4.4 18:45:45 10° SSE 18:51:30 39° E 18:57:14 10° NNE
Cosmos 2322 3.9 18:51:41 10° NNW 18:57:26 78° WSW 19:03:06 10° SSE
Hubble Space Telescope 3.1 18:59:06 10° SSW 19:00:51 12° S 19:02:36 10° SE
BREEZE-M DEB (TANK) 2.7 18:59:16 10° SW 19:03:45 51° SSE 19:05:20 19° ENE
Cosmos 1850 Rocket 4.0 19:00:33 10° SSW 19:05:51 85° ESE 19:11:14 10° NNE
Cosmos 2208 Rocket 4.0 19:01:39 10° NNW 19:07:07 72° ENE 19:12:29 10° SSE
CZ-3C R/B 3.9 19:04:35 10° SW 19:07:23 11° SSW 19:09:23 10° S
Meteor 1-19 Rocket 4.4 19:02:04 10° NNW 19:07:47 82° W 19:13:33 10° S
SJ-6B 2.7 19:05:02 10° SSE 19:09:01 86° ENE 19:12:55 10° NNW
Cosmos 405 Rocket 3.8 19:07:36 10° NNE 19:11:05 27° ENE 19:13:12 17° ESE
Cosmos 2237 Rocket 3.2 19:07:09 10° N 19:11:53 26° NE 19:14:36 19° E
ALOS 2.2 19:08:03 10° SSE 19:12:39 64° ENE 19:17:18 10° N
HJ-1C 3.4 19:10:33 10° SSE 19:13:52 59° ENE 19:17:12 10° N
Cosmos 2297 Rocket 3.4 19:10:14 10° SE 19:14:00 19° E 19:14:23 18° E
Cosmos 2333 4.2 19:08:41 10° NNW 19:14:25 67° ENE 19:20:08 10° SSE
H-2A R/B 3.1 19:12:17 10° SE 19:15:46 40° ENE 19:19:18 10° N
Cosmos 2237 4.3 19:10:21 10° NNW 19:16:06 82° WSW 19:21:48 10° SSE
COSMOS 2428 2.6 19:10:33 10° NNW 19:16:16 79° ENE 19:21:57 10° SSE
CZ-2D R/B 4.0 19:14:14 17° ESE 19:16:31 31° ENE 19:19:54 10° N
Okean 1-7 Rocket 3.5 19:14:34 10° N 19:19:07 87° E 19:23:35 10° S
Meteor 2-4 Rocket 3.6 19:16:17 10° N 19:21:49 86° W 19:27:12 10° S
Gbstr 26 Del rocket 3.9 19:19:16 10° W 19:22:49 35° NNW 19:25:40 14° NE
Cosmos 2285 Rocket 4.0 19:16:44 10° NNW 19:23:08 64° ENE 19:29:28 10° SSE
Cosmos 2219 Rocket 2.3 19:18:57 10° NNW 19:24:25 51° ENE 19:28:57 15° SE
Cosmos 2360 Rocket 3.6 19:19:11 10° NW 19:24:26 40° WSW 19:29:40 10° S
Meteor 1-23 Rocket 4.2 19:21:45 10° N 19:27:35 86° E 19:33:18 10° S
Okean 2 3.4 19:24:37 10° N 19:28:44 55° E 19:32:50 10° SSE
Cosmos 2219 3.5 19:26:27 10° SSW 19:32:11 71° WNW 19:37:56 10° NNE
FREGAT/IRIS 4.5 19:30:01 10° SSW 19:32:50 33° W 19:35:42 10° NNW
Atlas Centaur 2 4.2 19:29:27 10° SSW 19:33:43 16° SSE 19:35:47 14° SE
Cosmos 2227 Rocket 2.6 19:29:03 10° S 19:34:10 37° ESE 19:38:28 14° NE
Helios 1A 3.3 19:33:28 32° ESE 19:34:42 40° ENE 19:38:37 10° N
Helios 1B rocket 2.9 19:31:39 10° NNE 19:35:33 38° E 19:39:25 10° SSE
Abrixas rocket 3.0 19:32:42 10° W 19:35:58 48° NNW 19:37:11 31° NNE
Cosmos 1536 4.1 19:35:47 10° SSW 19:39:34 42° WNW 19:43:23 10° N
SAR-Lupe-1 4.2 19:44:48 51° ENE 19:44:48 51° ENE 19:48:03 10° N
SAR-Lupe-4 3.4 19:44:54 56° ESE 19:45:24 64° ENE 19:48:57 10° N
Cosmos 1455 Rocket 3.2 19:42:10 10° SSE 19:46:22 47° E 19:50:33 10° NNE
Cosmos 841 Rocket 4.4 19:42:19 10° N 19:46:24 28° NE 19:46:24 28° NE
SL-16 R/B 3.5 19:43:13 10° N 19:47:22 22° NE 19:47:22 22° NE
Cosmos 1763 Rocket 3.8 19:52:39 10° N 19:57:29 43° ENE 19:57:29 43° ENE
Resurs 01 Rocket 2.4 19:55:06 10° S 19:59:24 53° W 20:03:43 10° NNW
ATLAS 2A CENTAUR R/B 4.5 20:06:52 10° SSW 20:09:13 13° SSE 20:10:06 12° SSE
Resurs 1-3 4.5 20:05:36 10° S 20:09:50 48° W 20:14:05 10° NNW
Cosmos 2333 Rocket 2.2 20:04:38 10° NNW 20:10:25 84° WSW 20:12:59 35° SSE
Cosmos 1980 3.5 20:05:46 10° NNW 20:11:27 80° ENE 20:12:50 53° SE
GEOS 3 Rocket 3.7 20:08:20 21° NNE 20:11:59 76° NW 20:17:15 10° SW
GPS 2-04 Rocket1 3.7 20:10:40 10° WSW 20:14:12 40° SSW 20:14:12 40° SSW
OTV 4 3.6 20:22:19 10° WSW 20:22:38 12° WSW 20:22:38 12° WSW
Cosmos 1295 Rocket 4.3 20:33:35 77° ESE 20:33:45 78° E 20:40:04 10° N
Cosmos 2082 3.8 20:30:39 10° SSW 20:36:22 77° WNW 20:37:59 48° N
NOSS 3-1 (A) 3.9 20:35:20 10° NNW 20:43:01 79° NE 20:44:06 68° ESE
Envisat 3.6 20:47:02 53° NW 20:47:02 53° NW 20:51:03 10° NNW
ATLAS 2AS CENTAUR R/B 3.9 20:41:22 10° NNW 20:48:06 33° NNE 20:48:06 33° NNE
Cosmos 2237 Rocket 2.9 20:50:43 10° NW 20:56:10 48° WSW 20:56:29 47° WSW
Cosmos 2297 Rocket 2.8 20:51:56 10° SW 20:56:25 50° WSW 20:56:25 50° WSW
NOSS 3-1 (C) 4.2 20:53:11 10° NW 21:00:49 68° WSW 21:02:16 58° SSW
Cosmos 2219 Rocket 4.3 21:03:48 10° NW 21:07:56 21° W 21:10:47 15° SW
H-2A R/B 4.4 21:03:52 10° SSW 21:42:31 15° E 22:03:01 10° E
H-2A R/B 4.4 21:03:52 10° SSW 21:42:30 15° E 22:03:01 10° E
H-2A R/B 4.4 21:03:52 10° SSW 21:42:32 15° E 22:03:01 10° E
Cosmos 2227 Rocket 3.8 21:13:14 10° WSW 21:18:14 32° WNW 21:20:36 23° NNW
SL-16 R/B 3.9 21:26:34 10° NNW 21:29:17 28° NW 21:29:17 28° NW
